Location: Newark
(9.4667°S, 159.8167°E)
Time: 05:18:30
(UTC+00:00)

Courier 1B Rocket - Pass Details

Date: 23 November 2019
Orbit: 920 x 1202 km, 28.2° (Epoch: 09 December)

Event Time Altitude Azimuth Distance (km) Brightness Sun altitude
Rises 22:36:48 0° 259° (W) 3,572 7.6 52.2°
Reaches altitude 10° 22:39:43 10° 269° (W) 2,612 7.0 52.8°
Maximum altitude 22:45:07 31° 329° (NNW) 1,555 6.2 54.1°
Drops below altitude 10° 22:50:34 10° 30° (NNE) 2,623 7.5 55.3°
Sets 22:53:31 0° 40° (NE) 3,590 8.1 56.0°
